TimePST,TemperatureF,Dew PointF,Humidity,Sea Level PressureIn,VisibilityMPH,Wind Direction,Wind SpeedMPH,Gust SpeedMPH,PrecipitationIn,Events,Conditions,WindDirDegrees,DateUTC
12:54 AM,34.0,28.0,79,30.21,10.0,Calm,Calm,-,N/A,,Clear,0,2013-12-08 08:54:00
1:54 AM,34.0,27.0,75,30.21,10.0,ENE,3.5,-,N/A,,Clear,70,2013-12-08 09:54:00
2:54 AM,34.0,26.1,73,30.22,10.0,Calm,Calm,-,N/A,,Clear,0,2013-12-08 10:54:00
3:54 AM,30.0,26.1,85,30.22,10.0,ENE,3.5,-,N/A,,Clear,60,2013-12-08 11:54:00
4:54 AM,30.0,25.0,82,30.22,10.0,East,3.5,-,N/A,,Clear,90,2013-12-08 12:54:00
5:54 AM,30.0,26.1,85,30.24,10.0,Calm,Calm,-,N/A,,Clear,0,2013-12-08 13:54:00
6:54 AM,30.9,26.1,82,30.26,10.0,ESE,3.5,-,N/A,,Clear,110,2013-12-08 14:54:00
7:54 AM,30.9,27.0,85,30.28,9.0,Calm,Calm,-,N/A,,Clear,0,2013-12-08 15:54:00
8:54 AM,35.1,28.9,78,30.28,10.0,SE,4.6,-,N/A,,Clear,140,2013-12-08 16:54:00
9:54 AM,37.9,28.9,70,30.29,10.0,SE,3.5,-,N/A,,Clear,130,2013-12-08 17:54:00
10:54 AM,39.9,27.0,60,30.27,10.0,Calm,Calm,-,N/A,,Clear,0,2013-12-08 18:54:00
11:54 AM,43.0,28.0,56,30.25,10.0,Calm,Calm,-,N/A,,Clear,0,2013-12-08 19:54:00
12:54 PM,44.1,27.0,51,30.25,10.0,West,3.5,-,N/A,,Clear,270,2013-12-08 20:54:00
1:54 PM,44.1,27.0,51,30.23,10.0,SW,4.6,-,N/A,,Clear,230,2013-12-08 21:54:00
2:54 PM,45.0,26.1,48,30.22,10.0,SE,3.5,-,N/A,,Clear,130,2013-12-08 22:54:00
3:54 PM,45.0,26.1,48,30.20,10.0,Calm,Calm,-,N/A,,Clear,0,2013-12-08 23:54:00
4:54 PM,44.1,26.1,49,30.22,10.0,Calm,Calm,-,N/A,,Clear,0,2013-12-09 00:54:00
5:54 PM,41.0,28.9,62,30.22,10.0,Calm,Calm,-,N/A,,Clear,0,2013-12-09 01:54:00
6:54 PM,39.9,28.9,65,30.24,10.0,East,3.5,-,N/A,,Clear,100,2013-12-09 02:54:00
7:54 PM,37.9,28.9,70,30.25,10.0,ENE,3.5,-,N/A,,Clear,70,2013-12-09 03:54:00
8:54 PM,34.0,27.0,75,30.27,10.0,East,3.5,-,N/A,,Clear,90,2013-12-09 04:54:00
9:54 PM,34.0,28.0,79,30.30,8.0,Calm,Calm,-,N/A,,Clear,0,2013-12-09 05:54:00
10:54 PM,34.0,28.0,79,30.31,10.0,ESE,3.5,-,N/A,,Clear,120,2013-12-09 06:54:00
11:54 PM,33.1,27.0,78,30.30,10.0,Calm,Calm,-,N/A,,Clear,0,2013-12-09 07:54:00